Albany, VT

4:56 PM EDT on September 26, 2016 (GMT -0400)
Newport State

Weather History for KEFK - August, 2014

Change the Weather History Date:

Wednesday, August 13, 2014

  Actual Average Record
Temperature  
Mean Temperature 62 °F -  
Max Temperature 67 °F 78 °F 94 °F (1947)
Min Temperature 57 °F 53 °F 40 °F (1946)
Degree Days  
Heating Degree Days 2    
Growing Degree Days 12 (Base 50)    
Moisture  
Dew Point 59 °F    
Average Humidity 85    
Maximum Humidity 99    
Minimum Humidity 71    
Precipitation  
Precipitation 0.00 in - - ()
Sea Level Pressure  
Sea Level Pressure 29.85 in    
Wind  
Wind Speed 9 mph (SSE)    
Max Wind Speed 17 mph    
Max Gust Speed 26 mph    
Visibility 9 miles    
Events Rain    
Averages and records for this station are not official NWS values.
T = Trace of Precipitation, MM = Missing Value Source: NWS Daily Summary

Daily Weather History Graph

Daily Weather History Graph

Search for Another Location

Airport or City:

Trip Planner

Search our weather history database for the weather conditions in past years. The results will help you decide how hot, cold, wet, or windy it might be!

Date:

Astronomy

Aug. 13, 2014 Rise Set
Actual Time 5:48 AM EDT 7:58 PM EDT
Civil Twilight 5:16 AM EDT 8:30 PM EDT
Nautical Twilight 4:36 AM EDT 9:09 PM EDT
Astronomical Twilight 3:52 AM EDT 9:53 PM EDT
Moon 9:29 PM EDT (8/13) 9:24 AM EDT (8/13)
Length of Visible Light 15h 13m
Length of Day
14h 09m
Waning Gibbous, 88% of the Moon is Illuminated
Aug 13
Waning Gibbous
Aug 17
Last Quarter
Aug 25
New
Sep 2
First Quarter
Sep 8
Full

Hourly Weather History & Observations

Time (EDT) Temp. Dew Point Humidity Pressure Visibility Wind Dir Wind Speed Gust Speed Precip Events Conditions
12:15 AM 67.1 °F 57.6 °F 71% 29.99 in 10.0 mi SSE 12.7 mph 17.3 mph N/A   Mostly Cloudy
12:35 AM 66.6 °F 57.7 °F 73% 29.99 in 10.0 mi South 9.2 mph 16.1 mph N/A   Mostly Cloudy
12:55 AM 66.2 °F 57.9 °F 75% 29.98 in 10.0 mi SSE 11.5 mph 17.3 mph N/A   Scattered Clouds
1:15 AM 66.6 °F 58.1 °F 74% 29.97 in 10.0 mi SSE 8.1 mph 17.3 mph N/A   Scattered Clouds
1:35 AM 66.4 °F 58.1 °F 75% 29.97 in 10.0 mi SSE 11.5 mph 17.3 mph N/A   Scattered Clouds
1:55 AM 65.8 °F 58.3 °F 77% 29.96 in 10.0 mi SSE 9.2 mph - N/A   Scattered Clouds
2:15 AM 65.7 °F 58.6 °F 78% 29.95 in 10.0 mi SSE 9.2 mph 16.1 mph N/A   Clear
2:35 AM 65.8 °F 59.0 °F 79% 29.95 in 10.0 mi SSE 10.4 mph - N/A   Clear
2:55 AM 65.7 °F 59.0 °F 79% 29.94 in 10.0 mi SSE 12.7 mph - N/A   Clear
3:15 AM 66.2 °F 58.6 °F 77% 29.93 in 10.0 mi SSE 10.4 mph - N/A   Clear
3:35 AM 66.2 °F 58.6 °F 77% 29.92 in 10.0 mi SSE 9.2 mph - N/A   Clear
3:55 AM 66.4 °F 58.6 °F 76% 29.92 in 10.0 mi SSE 9.2 mph - N/A   Clear
4:15 AM 66.4 °F 58.5 °F 76% 29.92 in 10.0 mi South 10.4 mph 17.3 mph N/A   Scattered Clouds
4:35 AM 66.4 °F 58.5 °F 76% 29.91 in 10.0 mi South 5.8 mph - N/A   Mostly Cloudy
4:55 AM 65.5 °F 58.6 °F 79% 29.90 in 10.0 mi South 4.6 mph - N/A   Scattered Clouds
5:15 AM 64.6 °F 59.0 °F 82% 29.89 in 10.0 mi SSE 6.9 mph - N/A   Clear
5:35 AM 66.0 °F 58.8 °F 78% 29.89 in 10.0 mi South 4.6 mph - N/A   Mostly Cloudy
5:55 AM 65.3 °F 59.2 °F 81% 29.88 in 10.0 mi SE 4.6 mph - N/A Rain Light Rain
6:15 AM 66.0 °F 59.9 °F 81% 29.88 in 10.0 mi SSE 8.1 mph - N/A   Overcast
6:35 AM 66.2 °F 59.9 °F 80% 29.88 in 10.0 mi SSE 8.1 mph - N/A   Overcast
7:15 AM 67.1 °F 59.4 °F 76% 29.87 in 10.0 mi SSE 11.5 mph 19.6 mph N/A   Overcast
7:35 AM 67.1 °F 59.0 °F 75% 29.88 in 10.0 mi SSE 16.1 mph 26.5 mph N/A   Overcast
7:55 AM 66.7 °F 59.2 °F 77% 29.88 in 10.0 mi South 15.0 mph 20.7 mph N/A   Overcast
8:35 AM 65.8 °F 60.1 °F 82% 29.87 in 10.0 mi SSE 11.5 mph 18.4 mph N/A   Overcast
8:55 AM 65.3 °F 60.3 °F 84% 29.87 in 10.0 mi SSE 10.4 mph - N/A   Overcast
9:15 AM 65.3 °F 60.3 °F 84% 29.87 in 10.0 mi SSE 8.1 mph - N/A   Overcast
9:35 AM 64.9 °F 60.6 °F 86% 29.87 in 10.0 mi South 6.9 mph - N/A Rain Light Rain
9:55 AM 63.9 °F 61.2 °F 91% 29.87 in 7.0 mi South 4.6 mph - N/A Rain Rain
10:35 AM 64.6 °F 61.0 °F 88% 29.85 in 10.0 mi SSE 11.5 mph 17.3 mph N/A   Overcast
10:55 AM 65.3 °F 59.9 °F 83% 29.85 in 10.0 mi SSE 11.5 mph 20.7 mph N/A   Overcast
11:15 AM 64.4 °F 60.1 °F 86% 29.85 in 10.0 mi SSE 6.9 mph - N/A Rain Light Rain
11:35 AM 64.4 °F 59.9 °F 85% 29.84 in 10.0 mi SSE 10.4 mph 19.6 mph N/A Rain Light Rain
11:55 AM 64.9 °F 60.1 °F 84% 29.84 in 10.0 mi SSE 10.4 mph - N/A Rain Light Rain
12:15 PM 65.3 °F 59.9 °F 83% 29.83 in 10.0 mi South 6.9 mph - N/A   Overcast
12:35 PM 65.1 °F 59.9 °F 83% 29.83 in 10.0 mi South 8.1 mph - N/A Rain Light Rain
12:55 PM 65.1 °F 60.4 °F 85% 29.82 in 10.0 mi SSE 11.5 mph 17.3 mph N/A   Light Drizzle
1:15 PM 65.3 °F 59.0 °F 80% 29.82 in 10.0 mi SSE 11.5 mph 17.3 mph N/A   Overcast
1:35 PM 63.7 °F 58.8 °F 84% 29.82 in 10.0 mi SSE 9.2 mph 16.1 mph N/A   Drizzle
1:55 PM 62.4 °F 58.3 °F 86% 29.81 in 10.0 mi SSE 12.7 mph 17.3 mph N/A Rain Rain
2:15 PM 61.2 °F 57.7 °F 88% 29.81 in 10.0 mi SSE 13.8 mph 18.4 mph N/A Rain Rain
2:35 PM 60.8 °F 58.1 °F 91% 29.80 in 10.0 mi South 5.8 mph - N/A Rain Rain
2:55 PM 60.4 °F 57.7 °F 91% 29.80 in 5.0 mi SSE 13.8 mph 21.9 mph N/A Rain Heavy Rain
3:15 PM 59.5 °F 58.1 °F 95% 29.80 in 4.0 mi SSE 9.2 mph - N/A Rain Rain
3:35 PM 59.2 °F 56.8 °F 92% 29.77 in 3.0 mi SE 17.3 mph 21.9 mph N/A Rain Heavy Rain
3:55 PM 58.8 °F 56.7 °F 93% 29.77 in 5.0 mi SE 13.8 mph 18.4 mph N/A Rain Rain
4:15 PM 58.3 °F 56.8 °F 95% 29.78 in 3.0 mi SSE 10.4 mph 16.1 mph N/A Rain Heavy Rain
4:35 PM 58.3 °F 56.7 °F 94% 29.78 in 5.0 mi South 5.8 mph - N/A Rain Rain
4:55 PM 59.0 °F 56.7 °F 92% 29.74 in 10.0 mi East 3.5 mph - N/A Rain Light Rain
5:15 PM 59.0 °F 56.8 °F 93% 29.76 in 10.0 mi Calm Calm - N/A Rain Light Rain
5:35 PM 59.7 °F 56.8 °F 90% 29.76 in 10.0 mi WSW 3.5 mph - N/A Rain Light Rain
6:15 PM 58.8 °F 57.0 °F 94% 29.77 in 10.0 mi Calm Calm - N/A Rain Light Rain
6:35 PM 58.5 °F 57.2 °F 96% 29.76 in 7.0 mi WNW 4.6 mph - N/A Rain Rain
6:55 PM 58.5 °F 57.6 °F 97% 29.75 in 7.0 mi NW 5.8 mph - N/A Rain Rain
7:15 PM 58.3 °F 57.6 °F 97% 29.76 in 7.0 mi NW 4.6 mph - N/A Rain Rain
7:35 PM 58.3 °F 57.6 °F 97% 29.75 in 5.0 mi WNW 5.8 mph - N/A Rain Rain
7:55 PM 58.1 °F 57.2 °F 97% 29.76 in 5.0 mi NW 4.6 mph - N/A Rain Rain
8:55 PM 58.1 °F 57.2 °F 97% 29.77 in 7.0 mi West 3.5 mph - N/A   Heavy Drizzle
9:35 PM 57.9 °F 57.6 °F 99% 29.76 in 5.0 mi ESE 3.5 mph - N/A   Heavy Drizzle